797  
ASUS41 KCTP 180110  
RWRCTP  
 
REGIONAL WEATHER ROUNDUP  
NATIONAL WEATHER SERVICE STATE COLLEGE PA  
900 PM EDT FRI AUG 17 2018  
 
NOTE: "FAIR" INDICATES FEW OR NO CLOUDS BELOW 12,000 FEET WITH NO  
SIGNIFICANT WEATHER AND/OR S TO VISIBILITY
.  
 
* = STATION THAT DOES NOT REPORT PRECIPITATION /E.G. RAIN...SNOW...ETC/  
THUNDER OR FOG.
 
 
PAZ002>004-007>009-013>016-020>023-029>032-180200-  
WESTERN PENNSYLVANIA  
 
CITY SKY/WX TMP DP RH WIND PRES REMARKS
 
ERIE MOCLDY 76 68 76 S7 29.92R  
MEADVILLE MOCLDY 70 70 100 S5 29.98R  
FRANKLIN* CLOUDY 70 66 88 SW6 30.01R  
NEW CASTLE MOCLDY 71 71 100 VRB3 29.98S  
BEAVER COUNTY NOT AVBL  
BUTLER* LGT RAIN 69 67 93 S6 30.01R  
PITTSBURGH INT CLOUDY 67 67 100 CALM 29.99S  
PITTSBURGH FAIR 67 67 100 SE5 30.00S  
INDIANA* CLOUDY 70 70 100 SW10 30.05R  
LATROBE MOCLDY 68 68 100 S6 30.03R  
WASHINGTON CO* FAIR 67 66 97 CALM 30.03  

 
 
PAZ004>006-010>012-017>019-024>028-033>037-041-042-045-046-049>053-180200-  
CENTRAL PENNSYLVANIA  
 
CITY SKY/WX TMP DP RH WIND PRES REMARKS
 
BRADFORD CLOUDY 72 68 87 CALM 30.01R  
DUBOIS LGT RAIN 71 70 96 W8 30.02R FOG  
CLEARFIELD LGT RAIN 74 71 91 SW8 30.01R  
JOHNSTOWN LGT RAIN 68 66 93 SW12 30.06R  
ALTOONA LGT RAIN 76 71 85 W8 30.02R  
STATE COLLEGE CLEAR 75 70 83 CALM 29.96R  
WILLIAMSPORT FAIR 75 73 93 CALM 29.93R  
SELINSGROVE FAIR 74 72 93 S3 29.95R  
FT INDIANTOWN MOCLDY 72 71 97 CALM 29.96S  
CAPITAL CITY FAIR 76 72 87 SW3 29.96R  
HARRISBURG CLOUDY 74 72 93 CALM 29.95R  
YORK FAIR 74 71 91 S3 29.97R  

 
 
PAZ038>040-043-044-047-048-054-055-060>062-067>071-180200-  
EASTERN PENNSYLVANIA  
 
CITY SKY/WX TMP DP RH WIND PRES REMARKS
 
SCRANTON FAIR 74 72 93 SW5 29.96F  
MOUNT POCONO LGT RAIN 69 69 100 W10 30.00S  
ALLENTOWN LGT RAIN 73 69 87 W6 29.95F  
QUAKERTOWN* MOCLDY 73 73 100 CALM 29.95F  
READING FAIR 72 72 100 CALM 29.94F  
LANCASTER FAIR 74 73 97 E3 29.96S  
COATESVILLE FAIR 81 73 78 W6 29.98S  
POTTSTOWN FAIR 72 71 97 CALM 29.96F  
BLUE BELL CLOUDY 81 73 78 CALM 29.95F  
DOYLESTOWN TSTM 77 70 79 VRB3 29.96R  
WILLOW GROVE NOT AVBL  
NORTH PHILA FAIR 87 73 62 SW9 29.95S  
PHILADELPHIA CLOUDY 84 73 69 S8 29.94S  

 
 
 
CLICK HERE TO GO TO PREVIOUS BULLETINS.

The Nexlab PA Page Main Text Page